Date,Time,Wetness (Wet Dry or Ice),Wind Speed (m/s),Temperature (C),Humidity (%),Pressure (mb),Radiation (W/m^2)
2019-10-26,06:10:00,WET,6.07,11.27,100.0,775.00,118.3
2019-10-26,06:15:00,WET,7.70,11.10,100.0,775.00,124.2
2019-10-26,06:20:00,WET,9.60,11.23,100.0,775.00,104.4
2019-10-26,06:25:00,WET,6.60,11.35,100.0,775.00,129.3
2019-10-26,06:30:00,WET,6.37,11.43,100.0,775.00,135.0
2019-10-26,06:35:00,WET,7.05,11.25,100.0,774.00,156.1
2019-10-26,06:40:00,WET,6.03,11.07,100.0,775.00,111.7
2019-10-26,06:45:00,WET,5.40,10.75,100.0,775.00,98.3
2019-10-26,06:50:00,WET,7.27,10.43,100.0,774.33,91.4
2019-10-26,06:55:00,WET,6.50,10.75,100.0,774.00,100.2
2019-10-26,07:00:00,WET,7.70,10.90,100.0,774.00,84.2
2019-10-26,07:05:00,WET,7.40,10.75,100.0,775.00,101.7
2019-10-26,07:10:00,WET,11.40,10.63,100.0,774.00,68.8
2019-10-26,07:15:00,WET,12.90,10.35,100.0,774.00,78.5
2019-10-26,07:20:00,WET,13.60,10.17,100.0,773.00,92.7
2019-10-26,07:25:00,WET,8.45,10.25,100.0,774.00,74.7
2019-10-26,07:30:00,WET,11.13,10.43,100.0,773.67,77.5
2019-10-26,07:35:00,WET,10.55,10.50,100.0,774.00,60.1
2019-10-26,07:40:00,WET,10.77,10.57,100.0,774.00,59.6
2019-10-26,07:45:00,WET,9.40,10.75,100.0,774.00,50.9
2019-10-26,07:50:00,WET,13.00,10.70,100.0,774.00,80.2
2019-10-26,07:55:00,WET,10.70,10.85,100.0,774.00,90.3
2019-10-26,08:00:00,WET,9.33,10.97,100.0,774.00,77.2
2019-10-26,08:05:00,WET,13.10,10.90,100.0,774.00,58.5
2019-10-26,08:10:00,WET,7.63,10.70,100.0,774.00,57.9
2019-10-26,08:15:00,WET,11.55,10.75,100.0,773.50,87.1
2019-10-26,08:20:00,WET,10.10,10.83,100.0,774.67,88.6
2019-10-26,08:25:00,WET,8.80,10.80,100.0,774.50,94.9
2019-10-26,08:30:00,WET,10.43,10.70,100.0,774.33,81.5
2019-10-26,08:35:00,WET,9.50,10.75,100.0,775.00,68.5
2019-10-26,08:40:00,WET,8.43,10.83,100.0,775.00,86.2
2019-10-26,08:45:00,WET,13.50,10.80,100.0,774.00,93.2
2019-10-26,08:50:00,DRY,14.17,10.80,100.0,774.00,88.3
2019-10-26,08:55:00,WET,8.60,10.80,100.0,775.00,119.2
2019-10-26,09:00:00,WET,9.60,10.90,100.0,774.33,138.9
2019-10-26,09:05:00,WET,8.90,11.00,100.0,775.00,110.8
2019-10-26,09:10:00,WET,7.57,11.10,100.0,775.00,90.3
2019-10-26,09:15:00,WET,9.00,11.10,100.0,775.00,128.1
2019-10-26,09:20:00,DRY,9.47,11.10,100.0,775.00,107.4
2019-10-26,09:25:00,DRY,10.20,11.15,100.0,775.00,90.2
2019-10-26,09:30:00,DRY,7.27,11.27,100.0,775.00,106.5
2019-10-26,09:35:00,DRY,8.60,11.30,100.0,776.00,123.8
2019-10-26,09:40:00,DRY,6.63,11.40,100.0,775.67,115.9
2019-10-26,09:45:00,WET,9.40,11.40,100.0,776.00,112.5
2019-10-26,09:50:00,WET,7.20,11.27,100.0,775.33,127.9
2019-10-26,09:55:00,WET,8.95,11.10,100.0,776.00,108.2
2019-10-26,10:00:00,WET,10.00,11.20,100.0,775.67,111.6
2019-10-26,10:05:00,WET,8.90,11.20,100.0,776.00,102.7
2019-10-26,10:10:00,DRY,7.43,11.07,100.0,776.00,132.4
2019-10-26,10:15:00,DRY,7.60,11.00,100.0,776.00,142.6
2019-10-26,10:20:00,DRY,7.03,11.07,100.0,776.00,137.0
2019-10-26,10:25:00,DRY,8.10,11.00,100.0,775.50,125.5
2019-10-26,10:30:00,DRY,10.87,11.03,100.0,775.67,154.9
2019-10-26,10:35:00,DRY,10.45,11.10,100.0,776.00,140.3
2019-10-26,10:40:00,DRY,9.00,11.13,100.0,776.00,150.7
2019-10-26,10:45:00,DRY,7.35,11.25,100.0,776.00,139.9
2019-10-26,10:50:00,WET,12.40,11.23,100.0,775.67,203.8
2019-10-26,10:55:00,DRY,10.30,11.35,100.0,776.00,160.9
2019-10-26,11:00:00,DRY,7.67,11.43,100.0,775.67,164.1
2019-10-26,11:05:00,DRY,10.85,11.45,100.0,776.00,148.0
2019-10-26,11:10:00,DRY,7.50,11.47,100.0,775.33,189.1
2019-10-26,11:15:00,DRY,9.75,11.40,100.0,776.00,158.3
2019-10-26,11:20:00,DRY,7.53,11.47,100.0,776.00,174.3
2019-10-26,11:25:00,DRY,7.70,11.40,100.0,776.00,130.7
2019-10-26,11:30:00,DRY,8.53,11.47,100.0,776.00,123.8
2019-10-26,11:35:00,DRY,12.55,11.35,100.0,776.00,194.2
2019-10-26,11:40:00,DRY,11.07,11.40,100.0,776.00,148.0
2019-10-26,11:45:00,WET,10.30,11.45,100.0,776.00,159.3
2019-10-26,11:50:00,WET,12.10,11.43,100.0,776.00,187.0
2019-10-26,11:55:00,DRY,8.55,11.35,100.0,776.00,200.8
2019-10-26,12:00:00,DRY,8.93,11.37,100.0,776.00,213.2
2019-10-26,12:05:00,DRY,6.60,11.35,100.0,776.00,242.4
2019-10-26,12:10:00,DRY,9.67,11.37,100.0,776.00,288.2
2019-10-26,12:15:00,DRY,6.50,11.15,100.0,776.00,230.8
2019-10-26,12:20:00,DRY,9.13,11.07,100.0,776.00,244.2
2019-10-26,12:25:00,DRY,8.05,10.80,100.0,776.00,291.0
2019-10-26,12:30:00,DRY,8.93,11.00,100.0,776.00,354.7
2019-10-26,12:35:00,DRY,7.75,11.05,100.0,776.00,245.8
2019-10-26,12:40:00,DRY,7.70,11.13,100.0,776.00,306.4
2019-10-26,12:45:00,DRY,10.15,11.30,100.0,776.00,285.9
2019-10-26,12:50:00,DRY,7.83,11.13,100.0,776.00,406.4
2019-10-26,12:55:00,DRY,7.40,11.05,100.0,776.00,277.4
2019-10-26,13:00:00,DRY,7.97,11.13,100.0,776.00,416.6
2019-10-26,13:05:00,DRY,5.65,11.15,100.0,776.00,256.4
2019-10-26,13:10:00,DRY,7.47,11.30,100.0,776.00,305.7
2019-10-26,13:15:00,DRY,6.60,11.15,100.0,776.00,222.4
2019-10-26,13:20:00,DRY,6.60,11.33,100.0,776.00,258.5
2019-10-26,13:25:00,DRY,5.60,11.20,100.0,776.00,268.2
2019-10-26,13:30:00,DRY,4.90,11.30,100.0,776.00,300.2
2019-10-26,13:35:00,DRY,6.70,11.10,100.0,776.00,238.3
2019-10-26,13:40:00,DRY,6.83,11.00,100.0,776.00,198.2
2019-10-26,13:45:00,DRY,6.70,11.20,100.0,776.00,229.2
2019-10-26,13:50:00,DRY,9.07,11.13,100.0,776.00,197.7
2019-10-26,13:55:00,DRY,4.85,11.20,100.0,776.00,164.9
2019-10-26,14:00:00,DRY,9.63,10.97,100.0,775.67,186.3
2019-10-26,14:05:00,DRY,5.25,10.75,100.0,776.00,180.8
2019-10-26,14:10:00,DRY,4.60,10.70,100.0,776.00,216.7
2019-10-26,14:15:00,DRY,6.20,10.80,100.0,776.00,221.1
2019-10-26,14:20:00,DRY,6.40,10.93,100.0,776.00,193.8
2019-10-26,14:25:00,DRY,6.60,10.95,100.0,776.00,217.6
2019-10-26,14:30:00,DRY,7.40,11.03,100.0,776.00,237.4
2019-10-26,14:35:00,DRY,5.45,10.80,100.0,776.00,185.3
2019-10-26,14:40:00,DRY,5.93,10.93,100.0,776.00,150.4
2019-10-26,14:45:00,DRY,7.55,10.80,100.0,776.00,185.0
2019-10-26,14:50:00,DRY,6.83,10.77,100.0,776.00,215.9
2019-10-26,14:55:00,DRY,4.65,10.50,100.0,776.00,175.1
2019-10-26,15:00:00,DRY,8.20,10.70,100.0,776.00,171.6
2019-10-26,15:05:00,DRY,5.20,10.60,100.0,776.00,153.9
2019-10-26,15:10:00,DRY,5.03,10.43,100.0,776.00,157.9
2019-10-26,15:15:00,DRY,4.40,10.70,100.0,776.00,170.2
2019-10-26,15:20:00,DRY,6.83,10.47,100.0,776.00,173.9
2019-10-26,15:25:00,DRY,4.55,10.65,100.0,776.00,178.0
2019-10-26,15:30:00,DRY,7.03,10.77,100.0,776.00,184.6
2019-10-26,15:35:00,WET,5.75,10.80,100.0,776.00,178.9
2019-10-26,15:40:00,WET,5.60,10.50,100.0,776.00,219.5
2019-10-26,15:45:00,WET,7.00,10.60,100.0,776.00,195.2
2019-10-26,15:50:00,WET,5.97,10.60,100.0,776.00,167.2
2019-10-26,15:55:00,WET,6.70,10.80,100.0,776.00,149.2
2019-10-26,16:00:00,WET,4.47,10.90,100.0,776.00,132.5
2019-10-26,16:05:00,WET,3.65,11.10,100.0,776.00,157.1
2019-10-26,16:10:00,WET,6.67,11.23,100.0,776.00,137.8
2019-10-26,16:15:00,WET,5.25,11.20,100.0,776.00,119.2
2019-10-26,16:20:00,WET,5.00,10.93,100.0,776.00,153.5
2019-10-26,16:25:00,WET,2.45,11.05,100.0,776.00,140.4
2019-10-26,16:30:00,WET,5.37,10.47,100.0,776.00,111.1
2019-10-26,16:35:00,WET,4.70,10.90,100.0,776.00,166.2
2019-10-26,16:40:00,WET,5.63,11.33,100.0,776.00,122.9
2019-10-26,16:45:00,WET,6.95,11.40,100.0,776.00,119.7
2019-10-26,16:50:00,DRY,6.50,11.27,100.0,776.00,113.7
2019-10-26,16:55:00,DRY,7.45,11.20,100.0,776.00,132.4
2019-10-26,17:00:00,DRY,6.07,11.33,100.0,776.00,112.3
2019-10-26,17:05:00,DRY,7.30,11.35,100.0,776.00,119.2
2019-10-26,17:10:00,DRY,5.50,11.43,100.0,776.00,101.3
2019-10-26,17:15:00,WET,5.00,11.40,100.0,776.00,105.5
2019-10-26,17:20:00,WET,6.10,11.00,100.0,776.00,129.7
2019-10-26,17:25:00,WET,6.85,10.85,100.0,776.00,114.3
2019-10-26,17:30:00,WET,8.23,11.43,100.0,776.00,165.8
2019-10-26,17:35:00,DRY,7.30,11.65,100.0,776.00,179.2
2019-10-26,17:40:00,DRY,9.30,11.43,100.0,776.00,171.9
2019-10-26,17:45:00,DRY,5.45,11.40,100.0,776.00,170.7
2019-10-26,17:50:00,DRY,6.93,11.50,100.0,776.00,142.7
2019-10-26,17:55:00,DRY,8.80,11.45,100.0,776.00,124.2
2019-10-26,18:00:00,DRY,5.97,11.50,100.0,776.00,135.5
2019-10-26,18:05:00,DRY,7.80,11.65,100.0,776.00,141.6
2019-10-26,18:10:00,DRY,7.67,11.70,100.0,776.00,120.2
2019-10-26,18:15:00,DRY,9.85,11.80,100.0,776.00,127.5
2019-10-26,18:20:00,DRY,6.93,11.70,100.0,776.00,95.4
2019-10-26,18:25:00,DRY,5.45,11.85,100.0,776.00,129.1
2019-10-26,18:30:00,DRY,6.50,12.00,100.0,776.00,105.9
2019-10-26,18:35:00,DRY,7.25,12.05,100.0,776.00,84.9
2019-10-26,18:40:00,DRY,7.53,12.13,100.0,776.00,103.8
2019-10-26,18:45:00,DRY,4.85,12.15,100.0,776.00,96.7
2019-10-26,18:50:00,DRY,5.53,12.17,100.0,776.00,103.5
2019-10-26,18:55:00,DRY,7.20,12.15,100.0,776.00,94.8
2019-10-26,19:00:00,DRY,3.30,12.10,100.0,776.00,102.3
2019-10-26,19:05:00,DRY,4.55,12.20,100.0,776.50,136.2
2019-10-26,19:10:00,WET,4.33,12.13,100.0,776.33,97.0
2019-10-26,19:15:00,DRY,3.50,12.20,100.0,776.50,95.1
2019-10-26,19:20:00,WET,5.80,12.27,100.0,776.67,102.3
2019-10-26,19:25:00,DRY,3.85,12.20,100.0,776.50,97.2
2019-10-26,19:30:00,WET,4.70,12.20,100.0,776.67,102.3
2019-10-26,19:35:00,WET,7.70,12.35,100.0,776.50,108.2
2019-10-26,19:40:00,WET,8.10,12.30,100.0,776.33,111.6
2019-10-26,19:45:00,WET,4.10,12.35,100.0,776.50,116.2
2019-10-26,19:50:00,WET,8.43,12.30,100.0,776.67,121.9
2019-10-26,19:55:00,WET,6.45,12.35,100.0,777.00,104.0
2019-10-26,20:00:00,WET,5.83,12.33,100.0,777.00,160.4
2019-10-26,20:05:00,WET,4.60,12.45,100.0,777.00,181.0
2019-10-26,20:10:00,WET,5.03,12.53,100.0,777.00,183.8
2019-10-26,20:15:00,WET,5.65,12.50,100.0,777.00,183.4
2019-10-26,20:20:00,WET,3.60,12.60,100.0,777.00,129.0
2019-10-26,20:25:00,WET,2.30,12.60,100.0,777.00,130.1
2019-10-26,20:30:00,WET,2.60,12.57,100.0,777.00,131.8
2019-10-26,20:35:00,WET,3.75,12.55,100.0,777.00,129.2
2019-10-26,20:40:00,WET,5.07,12.53,100.0,777.00,151.5
2019-10-26,20:45:00,WET,3.20,12.60,100.0,777.00,135.6
2019-10-26,20:50:00,WET,5.80,12.57,100.0,777.00,128.9
2019-10-26,20:55:00,WET,5.15,12.65,100.0,777.00,159.9
2019-10-26,21:00:00,WET,5.13,12.70,100.0,777.33,132.8
2019-10-26,21:05:00,WET,2.40,12.70,100.0,777.50,139.4
2019-10-26,21:10:00,WET,3.37,12.70,100.0,778.00,136.0
2019-10-26,21:15:00,WET,4.30,12.70,100.0,778.00,133.2
2019-10-26,21:20:00,WET,3.17,12.70,100.0,777.33,130.9
2019-10-26,21:25:00,WET,3.30,12.65,100.0,778.00,134.5
2019-10-26,21:30:00,WET,4.13,12.70,100.0,777.67,150.2
2019-10-26,21:35:00,WET,4.65,12.60,100.0,777.00,171.8
2019-10-26,21:40:00,WET,5.33,12.60,100.0,777.67,188.9
2019-10-26,21:45:00,WET,6.10,12.60,100.0,778.00,156.3
2019-10-26,21:50:00,WET,4.93,12.57,100.0,778.00,155.0
2019-10-26,21:55:00,WET,2.85,12.60,100.0,777.50,140.1
2019-10-26,22:00:00,WET,3.73,12.60,100.0,777.67,148.6
2019-10-26,22:05:00,WET,3.90,12.60,100.0,778.00,167.9
2019-10-26,22:10:00,WET,2.90,12.47,100.0,778.00,148.3
2019-10-26,22:15:00,WET,4.70,12.60,100.0,778.00,180.8
2019-10-26,22:20:00,WET,3.53,12.60,100.0,778.00,150.4
2019-10-26,22:25:00,WET,4.20,12.60,100.0,778.00,169.2
2019-10-26,22:30:00,WET,3.40,12.57,100.0,778.00,178.3
2019-10-26,22:35:00,WET,7.15,12.55,100.0,777.50,248.8
2019-10-26,22:40:00,WET,5.17,12.60,100.0,778.00,219.2
2019-10-26,22:45:00,WET,4.00,12.55,100.0,778.00,135.8
2019-10-26,22:50:00,WET,4.30,12.60,100.0,778.00,158.6
2019-10-26,22:55:00,WET,2.55,12.60,100.0,778.00,157.7
2019-10-26,23:00:00,WET,5.07,12.57,100.0,777.67,184.5
2019-10-26,23:05:00,WET,6.95,12.50,100.0,778.00,169.3
2019-10-26,23:10:00,WET,6.77,12.30,100.0,778.00,135.7
2019-10-26,23:15:00,WET,6.50,10.90,100.0,777.50,116.4
2019-10-26,23:20:00,WET,6.57,11.53,100.0,777.00,110.2
2019-10-26,23:25:00,WET,7.85,11.10,100.0,777.00,130.6
2019-10-26,23:30:00,WET,10.87,11.07,100.0,777.00,112.6
2019-10-26,23:35:00,WET,10.75,11.25,100.0,777.00,86.2
2019-10-26,23:40:00,WET,9.40,11.63,100.0,777.00,105.7
2019-10-26,23:45:00,WET,5.55,12.15,100.0,776.50,129.8
2019-10-26,23:50:00,WET,6.50,12.20,100.0,777.00,142.5
2019-10-26,23:55:00,WET,7.85,12.30,100.0,777.00,141.5
2019-10-27,00:00:00,WET,9.40,11.20,100.0,777.00,108.1
2019-10-27,00:05:00,DRY,5.10,10.65,100.0,777.50,92.3
2019-10-27,00:10:00,DRY,8.10,10.60,100.0,777.00,74.3
2019-10-27,00:15:00,DRY,7.50,10.65,100.0,777.00,58.8
2019-10-27,00:20:00,DRY,6.77,10.90,100.0,777.00,36.4
2019-10-27,00:25:00,DRY,3.40,11.05,100.0,777.00,34.3
2019-10-27,00:30:00,DRY,4.87,11.37,100.0,777.00,44.9
2019-10-27,00:35:00,DRY,6.60,12.00,100.0,777.00,83.2
2019-10-27,00:40:00,WET,5.63,12.23,100.0,777.00,135.4
2019-10-27,00:45:00,DRY,3.50,12.05,100.0,777.50,136.2
2019-10-27,00:50:00,DRY,3.53,11.77,100.0,777.00,121.2
2019-10-27,00:55:00,DRY,5.75,11.40,100.0,777.00,101.9
2019-10-27,01:00:00,WET,4.80,11.37,100.0,777.00,124.6
2019-10-27,01:05:00,DRY,4.25,11.50,100.0,777.00,141.4
2019-10-27,01:10:00,DRY,5.17,11.50,100.0,777.00,139.0
2019-10-27,01:15:00,WET,7.65,11.20,100.0,777.00,118.2
2019-10-27,01:20:00,DRY,8.43,11.17,100.0,777.00,126.3
2019-10-27,01:25:00,DRY,7.00,11.35,100.0,777.00,228.8
2019-10-27,01:30:00,WET,8.37,11.47,100.0,777.00,227.4
2019-10-27,01:35:00,WET,5.80,11.50,100.0,777.00,164.9
2019-10-27,01:40:00,WET,7.63,11.60,100.0,777.00,178.8
2019-10-27,01:45:00,WET,8.25,11.70,100.0,777.00,172.1
2019-10-27,01:50:00,WET,7.13,11.67,100.0,777.00,162.7
2019-10-27,01:55:00,WET,4.25,11.65,100.0,777.00,168.6
2019-10-27,02:00:00,WET,7.37,11.60,100.0,777.00,165.6
2019-10-27,02:05:00,WET,10.55,11.55,100.0,777.00,173.5
2019-10-27,02:10:00,WET,7.20,11.57,100.0,777.00,170.6
2019-10-27,02:15:00,WET,3.70,11.60,100.0,777.00,163.4
2019-10-27,02:20:00,WET,4.37,11.63,100.0,777.00,153.0
2019-10-27,02:25:00,WET,8.25,11.75,100.0,777.00,172.6
2019-10-27,02:30:00,WET,5.50,11.80,100.0,777.00,167.6
2019-10-27,02:35:00,WET,5.65,11.85,100.0,777.00,173.6
2019-10-27,02:40:00,WET,7.43,11.93,100.0,777.00,176.2
2019-10-27,02:45:00,WET,4.50,12.05,100.0,777.00,167.2
2019-10-27,02:50:00,WET,5.10,11.97,100.0,776.67,180.2
2019-10-27,02:55:00,WET,4.90,11.95,100.0,777.00,184.8
2019-10-27,03:00:00,WET,6.77,11.80,100.0,777.00,174.8
2019-10-27,03:05:00,WET,9.00,11.70,100.0,777.00,176.3
2019-10-27,03:10:00,WET,6.80,11.53,100.0,777.00,173.0
2019-10-27,03:15:00,WET,6.15,11.80,100.0,777.00,170.4
2019-10-27,03:20:00,WET,7.20,11.93,100.0,776.33,168.8
2019-10-27,03:25:00,WET,5.45,12.00,100.0,776.50,197.2
2019-10-27,03:30:00,WET,6.97,11.77,100.0,776.00,231.0
2019-10-27,03:35:00,WET,4.45,11.80,100.0,776.50,208.9
2019-10-27,03:40:00,WET,6.70,11.37,100.0,776.33,162.6
2019-10-27,03:45:00,WET,6.85,10.45,100.0,776.00,132.3
2019-10-27,03:50:00,WET,8.70,10.67,100.0,776.33,90.9
2019-10-27,03:55:00,WET,10.00,10.60,100.0,776.00,64.9
2019-10-27,04:00:00,WET,5.83,11.10,100.0,776.00,50.0
2019-10-27,04:05:00,WET,9.60,11.55,100.0,776.50,78.1
2019-10-27,04:10:00,WET,8.03,11.20,100.0,776.33,63.6
2019-10-27,04:15:00,WET,4.50,11.00,100.0,776.50,47.5
2019-10-27,04:20:00,WET,6.27,11.00,100.0,776.33,40.8
2019-10-27,04:25:00,WET,6.85,11.05,100.0,776.50,39.7
2019-10-27,04:30:00,WET,5.13,11.17,100.0,776.00,37.4
2019-10-27,04:35:00,WET,4.85,11.25,100.0,776.00,55.3
2019-10-27,04:40:00,WET,6.10,11.57,100.0,776.00,75.1
2019-10-27,04:45:00,WET,5.75,11.55,100.0,776.00,104.8
2019-10-27,04:50:00,WET,5.80,11.03,100.0,776.00,141.5
2019-10-27,04:55:00,WET,7.80,10.70,100.0,776.00,114.2
2019-10-27,05:00:00,DRY,9.27,10.77,99.7,776.00,72.1
2019-10-27,05:05:00,WET,6.45,10.75,97.5,776.00,40.6
2019-10-27,05:10:00,DRY,5.63,10.73,94.7,776.00,26.5
2019-10-27,05:15:00,WET,5.70,11.05,96.0,776.00,25.6
2019-10-27,05:20:00,WET,5.47,11.17,95.0,776.00,25.0
2019-10-27,05:25:00,WET,5.45,11.15,95.0,776.00,26.4
2019-10-27,05:30:00,DRY,7.50,11.33,88.3,776.00,29.3
2019-10-27,05:35:00,DRY,5.70,11.20,92.5,776.00,37.2
2019-10-27,05:40:00,WET,6.87,11.13,94.3,776.00,41.9
2019-10-27,05:45:00,WET,7.25,11.05,97.5,776.00,45.0
2019-10-27,05:50:00,WET,5.73,11.10,97.3,776.00,43.7
2019-10-27,05:55:00,WET,8.90,11.00,97.0,776.00,41.4
2019-10-27,06:00:00,WET,5.00,11.13,96.0,776.00,44.6
2019-10-27,06:05:00,WET,6.60,11.05,96.5,776.00,44.3
2019-10-27,06:10:00,WET,3.53,11.13,98.0,776.00,76.8
2019-10-27,06:15:00,WET,4.30,11.10,98.5,776.00,67.4
2019-10-27,06:20:00,WET,6.40,11.10,98.7,776.00,101.5
2019-10-27,06:25:00,WET,3.70,11.25,99.0,776.00,111.7
2019-10-27,06:30:00,WET,6.70,10.87,99.0,776.00,126.1
2019-10-27,06:35:00,WET,7.20,11.00,98.0,776.00,94.2
2019-10-27,06:40:00,WET,7.37,10.97,98.0,776.00,69.0
2019-10-27,06:45:00,WET,4.75,10.80,98.0,776.00,59.4
2019-10-27,06:50:00,WET,5.33,10.97,97.3,776.33,53.2
2019-10-27,06:55:00,WET,8.10,10.95,98.0,777.00,57.1
2019-10-27,07:00:00,WET,5.43,11.13,98.7,776.67,74.2
2019-10-27,07:05:00,WET,4.90,10.95,99.0,776.50,96.2
2019-10-27,07:10:00,WET,5.57,11.07,99.0,777.00,107.9
2019-10-27,07:15:00,WET,6.65,11.30,99.0,777.00,249.6
2019-10-27,07:20:00,WET,6.37,11.47,99.3,777.00,272.6
2019-10-27,07:25:00,WET,6.70,11.25,99.5,777.00,220.4
2019-10-27,07:30:00,WET,5.03,10.87,99.7,777.00,231.6
2019-10-27,07:35:00,WET,4.85,10.70,100.0,777.00,207.8
2019-10-27,07:40:00,WET,5.63,10.60,100.0,777.00,185.0
2019-10-27,07:45:00,WET,4.85,10.70,100.0,777.00,240.6
2019-10-27,07:50:00,WET,5.10,10.60,100.0,777.00,201.3
2019-10-27,07:55:00,WET,6.75,10.60,100.0,777.00,191.9
2019-10-27,08:00:00,WET,6.67,10.53,100.0,777.00,255.3
2019-10-27,08:05:00,WET,5.25,10.50,100.0,777.00,250.3
2019-10-27,08:10:00,WET,6.17,10.47,100.0,777.00,201.4
2019-10-27,08:15:00,WET,5.75,10.45,100.0,777.00,260.2
2019-10-27,08:20:00,WET,7.37,10.50,100.0,777.00,230.7
2019-10-27,08:25:00,WET,7.65,10.50,100.0,777.00,242.4
2019-10-27,08:30:00,WET,8.50,10.53,100.0,777.00,227.2
2019-10-27,08:35:00,WET,5.40,10.50,100.0,777.00,220.5
2019-10-27,08:40:00,WET,7.73,10.57,100.0,777.00,279.9
2019-10-27,08:45:00,WET,7.85,10.65,100.0,777.00,214.6
2019-10-27,08:50:00,WET,7.17,10.57,100.0,777.00,249.4
2019-10-27,08:55:00,WET,8.65,10.65,100.0,777.00,479.9
2019-10-27,09:00:00,WET,6.60,10.63,100.0,777.00,255.4
2019-10-27,09:05:00,WET,6.70,10.70,100.0,777.00,275.6
2019-10-27,09:10:00,WET,8.60,10.63,100.0,777.00,271.1
2019-10-27,09:15:00,WET,8.05,10.65,100.0,777.00,307.3
2019-10-27,09:20:00,WET,10.30,10.70,100.0,777.00,266.5
2019-10-27,09:25:00,WET,7.25,10.65,100.0,777.00,262.9
2019-10-27,09:30:00,WET,6.00,10.73,100.0,777.00,335.6
2019-10-27,09:35:00,WET,6.80,10.80,100.0,777.50,304.8
2019-10-27,09:40:00,WET,6.90,10.73,100.0,777.33,311.0
2019-10-27,09:45:00,WET,4.70,10.85,100.0,778.00,303.9
2019-10-27,09:50:00,WET,7.10,10.93,100.0,777.67,396.7
2019-10-27,09:55:00,WET,7.50,11.05,100.0,778.00,360.9
2019-10-27,10:00:00,WET,7.17,11.13,100.0,777.67,382.3
2019-10-27,10:05:00,WET,7.05,11.05,100.0,778.00,394.3
2019-10-27,10:10:00,WET,7.03,11.13,100.0,778.00,368.5
2019-10-27,10:15:00,WET,7.35,11.10,100.0,778.00,321.2
2019-10-27,10:20:00,WET,7.63,11.13,100.0,778.00,371.6
2019-10-27,10:25:00,WET,7.15,11.20,100.0,778.00,353.1
2019-10-27,10:30:00,WET,5.53,11.20,100.0,778.00,336.9
2019-10-27,10:35:00,WET,5.45,11.20,100.0,778.00,324.6
2019-10-27,10:40:00,WET,7.53,11.33,100.0,778.00,348.0
2019-10-27,10:45:00,WET,4.85,11.25,100.0,778.00,270.4
2019-10-27,10:50:00,WET,6.93,11.20,100.0,778.00,321.5
2019-10-27,10:55:00,WET,5.65,11.20,100.0,778.00,257.4
2019-10-27,11:00:00,WET,5.63,11.07,100.0,778.00,330.8
2019-10-27,11:05:00,WET,8.70,11.05,100.0,778.00,292.6
2019-10-27,11:10:00,WET,5.73,10.97,100.0,778.00,329.0
2019-10-27,11:15:00,WET,9.75,10.85,100.0,778.00,309.0
2019-10-27,11:20:00,WET,6.17,10.90,100.0,778.00,242.6
2019-10-27,11:25:00,WET,6.35,10.80,100.0,778.00,273.6
2019-10-27,11:30:00,WET,3.67,10.97,100.0,778.00,283.1
2019-10-27,11:35:00,WET,2.20,10.80,100.0,778.00,278.4
2019-10-27,11:40:00,WET,4.77,10.77,100.0,778.00,280.9
2019-10-27,11:45:00,WET,3.80,10.75,100.0,778.00,268.9
2019-10-27,11:50:00,WET,3.93,10.70,100.0,778.00,284.6
2019-10-27,11:55:00,WET,6.20,10.60,100.0,778.00,296.8
2019-10-27,12:00:00,WET,3.77,10.67,100.0,778.00,304.3
2019-10-27,12:05:00,WET,5.90,10.60,100.0,778.00,344.5
2019-10-27,12:10:00,WET,5.50,10.70,100.0,778.00,327.3
2019-10-27,12:15:00,WET,2.65,10.70,100.0,778.00,303.6
2019-10-27,12:20:00,WET,5.00,10.70,100.0,778.00,318.3
2019-10-27,12:25:00,WET,6.25,10.60,100.0,778.00,291.6
2019-10-27,12:30:00,WET,5.43,10.67,100.0,778.00,293.7
2019-10-27,12:35:00,WET,5.05,10.65,100.0,778.00,308.2
2019-10-27,12:40:00,WET,4.50,10.53,100.0,778.00,304.4
2019-10-27,12:45:00,WET,7.85,10.75,100.0,778.00,614.2
2019-10-27,12:50:00,WET,6.70,10.97,100.0,778.00,577.1
2019-10-27,12:55:00,WET,9.15,10.85,100.0,778.00,599.2
2019-10-27,13:00:00,WET,6.30,10.73,100.0,778.00,660.5
2019-10-27,13:05:00,WET,5.55,10.70,100.0,778.00,554.2
2019-10-27,13:10:00,WET,8.10,10.60,100.0,778.00,410.9
2019-10-27,13:15:00,WET,8.60,10.55,100.0,778.00,433.4
2019-10-27,13:20:00,WET,6.70,10.63,100.0,778.00,296.2
2019-10-27,13:25:00,WET,6.30,10.50,100.0,778.00,320.0
2019-10-27,13:30:00,WET,6.20,10.40,100.0,778.00,186.6
2019-10-27,13:35:00,WET,3.20,10.50,100.0,778.00,120.4
2019-10-27,13:40:00,WET,6.77,10.27,99.7,778.00,271.6
2019-10-27,13:45:00,WET,6.05,10.55,99.0,778.00,254.5
2019-10-27,13:50:00,WET,6.20,10.50,98.0,777.33,225.1
2019-10-27,13:55:00,WET,4.80,10.55,98.5,778.00,314.0
2019-10-27,14:00:00,WET,5.60,10.53,99.0,777.33,376.2
2019-10-27,14:05:00,WET,4.45,10.55,99.0,777.50,321.2
2019-10-27,14:10:00,WET,5.07,10.73,99.0,777.00,312.8
2019-10-27,14:15:00,WET,3.50,10.85,99.0,777.00,327.5
2019-10-27,14:20:00,WET,4.67,10.83,99.0,777.00,326.7
2019-10-27,14:25:00,WET,5.30,10.95,99.5,777.00,441.0
2019-10-27,14:30:00,WET,5.23,10.80,99.7,777.00,502.1
2019-10-27,14:35:00,WET,6.70,10.90,100.0,776.50,574.1
2019-10-27,14:40:00,WET,7.77,10.77,99.3,776.00,427.5
2019-10-27,14:45:00,WET,6.90,10.80,99.5,776.00,595.0
2019-10-27,14:50:00,WET,6.63,10.80,99.0,776.00,797.4
2019-10-27,14:55:00,DRY,8.50,11.75,83.0,776.50,923.0
2019-10-27,15:00:00,DRY,5.43,12.57,77.7,777.00,842.7
2019-10-27,15:05:00,DRY,7.30,13.05,72.0,777.00,788.1
2019-10-27,15:10:00,DRY,4.70,13.37,71.7,777.00,759.8
2019-10-27,15:15:00,DRY,3.25,13.65,68.5,777.00,739.2
2019-10-27,15:20:00,DRY,3.53,13.87,70.7,777.00,723.2
2019-10-27,15:25:00,DRY,4.65,13.95,70.0,777.00,716.2
2019-10-27,15:30:00,DRY,4.60,13.83,73.7,777.00,703.0
2019-10-27,15:35:00,WET,4.25,13.55,80.0,777.00,726.4
2019-10-27,15:40:00,DRY,3.13,13.90,70.3,777.00,816.4
2019-10-27,15:45:00,DRY,3.20,14.15,68.0,777.00,689.2
2019-10-27,15:50:00,DRY,2.77,14.23,68.7,777.00,641.8
2019-10-27,15:55:00,DRY,2.65,13.85,77.5,777.00,681.2
2019-10-27,16:00:00,DRY,4.47,13.40,77.7,777.00,608.5
2019-10-27,16:05:00,DRY,2.50,13.10,81.0,777.00,470.2
2019-10-27,16:10:00,WET,3.30,13.37,79.3,777.00,556.4
2019-10-27,16:15:00,DRY,3.35,13.50,75.5,777.00,566.5
2019-10-27,16:20:00,DRY,2.70,13.27,78.3,777.00,549.6
2019-10-27,16:25:00,WET,2.75,13.20,84.0,777.00,477.0
2019-10-27,16:30:00,DRY,2.73,12.70,93.0,777.00,438.7
2019-10-27,16:35:00,WET,6.35,12.35,94.5,777.00,480.2
2019-10-27,16:40:00,WET,3.53,12.23,96.3,777.00,288.9
2019-10-27,16:45:00,WET,4.80,12.20,98.0,777.00,251.9
2019-10-27,16:50:00,WET,5.17,11.90,99.0,776.67,279.7
2019-10-27,16:55:00,WET,6.00,11.75,99.0,776.50,311.9
2019-10-27,17:00:00,WET,7.40,11.43,99.0,776.00,338.5
2019-10-27,17:05:00,WET,7.10,11.20,99.0,776.00,394.0
2019-10-27,17:10:00,WET,7.83,11.07,99.0,776.00,368.9
2019-10-27,17:15:00,WET,7.75,10.90,99.0,776.00,385.1
2019-10-27,17:20:00,WET,7.53,10.73,99.0,776.00,400.6
2019-10-27,17:25:00,WET,5.50,10.65,99.0,776.00,367.0
2019-10-27,17:30:00,WET,7.63,10.80,95.3,776.00,294.5
2019-10-27,17:35:00,WET,8.10,11.05,92.0,776.00,255.2
2019-10-27,17:40:00,WET,6.70,11.37,86.3,776.00,217.7
2019-10-27,17:45:00,WET,5.55,11.40,84.0,776.50,143.1
2019-10-27,17:50:00,WET,8.40,10.97,94.0,776.33,103.0
2019-10-27,17:55:00,WET,8.70,10.70,96.5,776.00,122.7
2019-10-27,18:00:00,WET,6.70,10.73,93.3,776.00,73.0
2019-10-27,18:05:00,WET,9.40,11.60,78.5,776.00,56.5
2019-10-27,18:10:00,WET,8.03,12.13,73.7,776.00,47.0
2019-10-27,18:15:00,WET,7.55,12.05,74.5,776.00,43.5
2019-10-27,18:20:00,WET,8.20,12.27,73.0,776.00,42.5
2019-10-27,18:25:00,WET,10.35,12.45,69.5,776.00,38.9
2019-10-27,18:30:00,WET,7.47,12.30,71.0,776.33,34.9
2019-10-27,18:35:00,WET,7.70,12.20,73.0,777.00,32.1
2019-10-27,18:40:00,WET,6.80,12.17,75.3,777.00,31.9
2019-10-27,18:45:00,WET,4.90,11.85,78.5,777.00,31.1
2019-10-27,18:50:00,WET,7.17,11.80,76.7,776.67,29.8
2019-10-27,18:55:00,WET,8.35,11.70,79.5,777.00,29.0
2019-10-27,19:00:00,WET,6.50,11.53,81.7,776.67,32.5
2019-10-27,19:05:00,WET,6.10,11.35,82.5,776.50,35.3
2019-10-27,19:10:00,WET,8.63,11.20,84.3,777.00,36.9